Regional Weather Roundup
Issued by NWS

Home | Current Version | Previous Version | Graphics & Text | Print | Product List | Glossary On
Versions: 1 2 3 4 5 6 7 8 9 10 11 12 13 14 15 16 17 18 19 20 21 22 23 24 25 26 27 28 29 30 31 32 33 34 35 36 37 38 39 40 41 42 43 44 45 46 47 48 49 50
000
ASUS43 KMKX 021211
RWRWI

WISCONSIN REGIONAL WEATHER ROUNDUP
NATIONAL WEATHER SERVICE MILWAUKEE/SULLIVAN WI
700 AM CDT MON MAY 02 2016

NOTE: "FAIR" INDICATES FEW OR NO CLOUDS BELOW 12,000 FEET WITH NO
SIGNIFICANT WEATHER AND/OR OBSTRUCTIONS TO VISIBILITY.

WIZ001-002-006>008-014>016-023>028-021300-
NORTHWEST WISCONSIN

CITY           SKY/WX    TMP DP  RH WIND       PRES   REMARKS
SUPERIOR ARPT  MOSUNNY   31  31 100 CALM      30.15S
6HR MIN TEMP:  27; 6HR MAX TEMP:  31;

ASHLAND        SUNNY     31  31 100 CALM      30.15S
6HR MIN TEMP:  26; 6HR MAX TEMP:  31;

HAYWARD        SUNNY     32  30  92 CALM      30.13R
6HR MIN TEMP:  29; 6HR MAX TEMP:  34;

SIREN          SUNNY     32  31  96 CALM      30.12S
6HR MIN TEMP:  29; 6HR MAX TEMP:  35;

CUMBERLAND     SUNNY     36  34  93 CALM      30.11R
RICE LAKE      SUNNY     37  35  92 CALM      30.13R
6HR MIN TEMP:  34; 6HR MAX TEMP:  44;

CHETEK         SUNNY     38  36  91 CALM      30.11S
6HR MIN TEMP:  33; 6HR MAX TEMP:  45;

LADYSMITH      SUNNY     35  33  94 CALM      30.14R
6HR MIN TEMP:  32; 6HR MAX TEMP:  40;

EAU CLAIRE     SUNNY     40  38  93 CALM      30.11S
6HR MIN TEMP:  35; 6HR MAX TEMP:  47;

MENOMONIE      SUNNY     39  33  76 CALM      30.12R
6HR MIN TEMP:  36; 6HR MAX TEMP:  45;

NEW RICHMOND   CLEAR     38  37  96 CALM      30.12R
6HR MIN TEMP:  34; 6HR MAX TEMP:  43;

OSCEOLA        CLEAR     35  35 100 CALM      30.15R
6HR MIN TEMP:  33; 6HR MAX TEMP:  42;

$$

WIZ003>005-009-010-017-018-021300-
NORTH CENTRAL WISCONSIN

CITY           SKY/WX    TMP DP  RH WIND       PRES   REMARKS
MANITOWISH WTR SUNNY     32  32 100 CALM      30.13S
6HR MIN TEMP:  28; 6HR MAX TEMP:  37;

ARBOR VITAE    MOSUNNY   34  33  93 CALM      30.13S
6HR MIN TEMP:  32; 6HR MAX TEMP:  41;

WOODRUFF       MOSUNNY   34  33  93 CALM      30.13S
6HR MIN TEMP:  32; 6HR MAX TEMP:  41;

RHINELANDER    SUNNY     36  30  79 CALM      30.13S
6HR MIN TEMP:  28; 6HR MAX TEMP:  39;

EAGLE RIVER    MOSUNNY   32  32 100 CALM      30.13S
LAND O LAKES   SUNNY     31  31  97 CALM      30.14S
6HR MIN TEMP:  27; 6HR MAX TEMP:  31;

PHILLIPS       SUNNY     33  32  96 CALM      30.12S
6HR MIN TEMP:  30; 6HR MAX TEMP:  39;

TOMAHAWK       SUNNY     31  31  96 CALM      30.13S
6HR MIN TEMP:  27; 6HR MAX TEMP:  34;

MEDFORD        SUNNY     35  34  96 NE3       30.11F
6HR MIN TEMP:  32; 6HR MAX TEMP:  40;

MERRILL        SUNNY     32  31  98 CALM      30.13S
$$

WIZ029-030-035-036-043>047-021300-
CENTRAL WISCONSIN

CITY           SKY/WX    TMP DP  RH WIND       PRES   REMARKS
WAUSAU         SUNNY     40  35  83 CALM      30.11S
6HR MIN TEMP:  36; 6HR MAX TEMP:  44;

MOSINEE        SUNNY     37  36  93 CALM      30.13R
MARSHFIELD     SUNNY     40  35  83 CALM      30.11S
6HR MIN TEMP:  33; 6HR MAX TEMP:  44;

STEVENS POINT  SUNNY     33  32  95 CALM      30.13S
6HR MIN TEMP:  28; 6HR MAX TEMP:  38;

WAUPACA        SUNNY     38  35  91 CALM      30.13R
6HR MIN TEMP:  34; 6HR MAX TEMP:  42;

WAUTOMA        SUNNY     37  34  89 CALM      30.12S
6HR MIN TEMP:  30; 6HR MAX TEMP:  42;

WISC RAPIDS    SUNNY     37  34  89 CALM      30.14S
6HR MIN TEMP:  31; 6HR MAX TEMP:  40;

CAMP DOUGLAS   SUNNY     30  30 100 CALM      30.12R
$$

WIZ011>013-019>022-031-037>040-048>050-021300-
NORTHEAST WISCONSIN

CITY           SKY/WX    TMP DP  RH WIND       PRES   REMARKS
ANTIGO         SUNNY     34  32  93 CALM      30.13R
6HR MIN TEMP:  30; 6HR MAX TEMP:  36;

SHAWANO        MOSUNNY   38  34  85 CALM      30.13R
6HR MIN TEMP:  35; 6HR MAX TEMP:  44;

OCONTO         MOSUNNY   40  35  80 N3        30.11S
6HR MIN TEMP:  31; 6HR MAX TEMP:  41;

STURGEON BAY   SUNNY     41  34  75 N6        30.13R
6HR MIN TEMP:  37; 6HR MAX TEMP:  43;

GREEN BAY      LGT RAIN  42  34  73 N6        30.12R
6HR MIN TEMP:  37; 6HR MAX TEMP:  43; 6HR PCP: TRACE;

MANITOWOC      SUNNY     42  36  79 NW9       30.10S
6HR MIN TEMP:  37; 6HR MAX TEMP:  43;

APPLETON       SUNNY     39  32  75 NW6       30.10R WCI  35
CLINTONVILLE   SUNNY     37  32  81 CALM      30.12S
OSHKOSH        SUNNY     41  36  82 NW5       30.11R
6HR MIN TEMP:  36; 6HR MAX TEMP:  47;

$$

WIZ032>034-041-042-053>061-021300-
SOUTHWEST WISCONSIN

CITY           SKY/WX    TMP DP  RH WIND       PRES   REMARKS
LA CROSSE      MOSUNNY   40  36  86 E3        30.12S
6HR MIN TEMP:  37; 6HR MAX TEMP:  44;

SPARTA         SUNNY     32  30  94 CALM      30.14R
6HR MIN TEMP:  28; 6HR MAX TEMP:  34;

VIROQUA        MOSUNNY   40  38  90 NE3       30.11S
6HR MIN TEMP:  39; 6HR MAX TEMP:  43;

BOSCOBEL       FOG       36  36 100 CALM      30.12S VSB<1/4
6HR MIN TEMP:  36; 6HR MAX TEMP:  39;

PRAIRIE DU CHI FOG       39  38  96 CALM      30.12S VSB<1/4
6HR MIN TEMP:  39; 6HR MAX TEMP:  44;

PLATTEVILLE    PTSUNNY   44  42  92 N7        30.10R
$$

WIZ056-057-062-063-064-067-068-021300-
SOUTH CENTRAL WISCONSIN

CITY           SKY/WX    TMP DP  RH WIND       PRES   REMARKS
REEDSBURG      SUNNY     34  34 100 CALM      30.11S
6HR MIN TEMP:  32; 6HR MAX TEMP:  40;

BARABOO/DELLS  SUNNY     36  35  96 CALM      30.11R
6HR MIN TEMP:  33; 6HR MAX TEMP:  43;

LONE ROCK      FOG       36  35  96 W6        30.11S VSB 1   WCI  31
6HR MIN TEMP:  34; 6HR MAX TEMP:  40;

MINERAL POINT  SUNNY     43  41  93 CALM      30.10R
MADISON        SUNNY     42  39  89 N7        30.09S
6HR MIN TEMP:  38; 6HR MAX TEMP:  48; 6HR PCP: TRACE;

MIDDLETON      SUNNY     43  40  89 CALM      30.10S
6HR MIN TEMP:  38; 6HR MAX TEMP:  49;

WATERTOWN      SUNNY     42  40  93 N6        30.08S
6HR MIN TEMP:  36; 6HR MAX TEMP:  47;

MONROE         SUNNY     43  41  93 N5        30.08R
JANESVILLE     SUNNY     46  43  87 N6        30.07R
$$

WIZ051-052-058>065-066-070>072-021300-
SOUTHEAST WISCONSIN

CITY           SKY/WX    TMP DP  RH WIND       PRES   REMARKS
MILWAUKEE      MOSUNNY   43  38  82 N7        30.07S
6HR MIN TEMP:  39; 6HR MAX TEMP:  45;

WAUKESHA       SUNNY     39  36  87 CALM      30.08S
MILWAUKEE/TIMM SUNNY     43  34  70 N6        30.08F
RACINE         SUNNY     43  38  82 N10       30.08F
6HR MIN TEMP:  39; 6HR MAX TEMP:  44;

BURLINGTON     SUNNY     42  38  86 CALM      30.07S
6HR MIN TEMP:  40; 6HR MAX TEMP:  44;

KENOSHA        SUNNY     44  39  82 N7        30.06S
6HR MIN TEMP:  42; 6HR MAX TEMP:  45;

FOND DU LAC    MOSUNNY   41  38  89 N3        30.10R
6HR MIN TEMP:  36; 6HR MAX TEMP:  46;

SHEBOYGAN      SUNNY     43  36  76 NW5       30.09R
6HR MIN TEMP:  38; 6HR MAX TEMP:  45;

WEST BEND      SUNNY     41  36  81 CALM      30.08F
JUNEAU         SUNNY     41  38  89 N6        30.09F
6HR MIN TEMP:  39; 6HR MAX TEMP:  46;

$$

LSZ147-162-021300-
LAKE SUPERIOR

STATION/POSITION TIME  TEMP    WIND        PRES    WAVE
                       AIR SEA DIR/SP/G            HT/PER
                 (UTC) (F)     (DEG/KT/KT) (MB)    (FT/S)
W MID LAKE BUOY  1150   38 36  200/  2/  2 1021.5R   1/ 4
DEVILS ISLAND    1200   38     270/  5/  6 1021.6R
SAXON HARBOR     1100   29     210/  3/  4 1020.3S
$$

LMZ867-665-643>646-021300-
LAKE MICHIGAN

STATION/POSITION TIME  TEMP    WIND        PRES    WAVE
                       AIR SEA DIR/SP/G            HT/PER
                 (UTC) (F)     (DEG/KT/KT) (MB)    (FT/S)
CHAMBERS ISLAND  1100   41     290/  3/  6 1019.6R
N MID LAKE BUOY  1150   39 38  320/  6/  6 1019.2R   0
NORTHPORT PIER   1200   41     310/ 11/ 14 1019.0S
KEWAUNEE LAKESHO 110C1F1C2F2C3F3C4F4C5F5C6F6C7F7C8M1C9M2Ca!



USA.gov is the U.S. government's official web portal to all federal, state and local government web resources and services.